Terug naar catalogus

STARLINK-1480

ActiefCommunicatieVLEO
NORAD 45741·PAYLOAD·🇺🇸 United States

Gelanceerd Jun 13, 2020 vanaf Cape Canaveral Space Force Station

Loading…

Volgende Passages (komende 24 uur)

TLE

VersSource: CelesTrak SupGP

Epoch: Sep 15, 2026, 01:29 UTC

1 45741C 20038M   26258.06229167  .00079484  00000+0  48816-3 0  2589
2 45741  53.0473   8.2999 0004639 350.6254  57.9157 15.76506741    16

Volg STARLINK-1480 in realtime met AllMySat

Download on the App Store